RA73519 HKJK-FGSL

Flight info

Callsign RA73519
Flight time 3h 56m
Altitude 40000
Route N0482F400 NAKAT UL433 NN UL434 NLY
Aircraft B772/H-SDE2E3FGHIJ5LORVWXY/LB1D1

Departure

Time 2026-04-14 08:38
Airport Jomo Kenyatta International Airport (HKJK)

Arrival

Time 2026-04-14 12:34
Airport Malabo International Airport (FGSL)
Time Latitude Longitude Altitude Speed Heading
2026-04-14 08:08 -1.33348 36.92396 5339 ft 0 kts 19°
2026-04-14 08:28 -1.33349 36.92395 5335 ft 2 kts 19°
2026-04-14 08:28 -1.33361 36.92391 5340 ft 2 kts 18°
2026-04-14 08:29 -1.33374 36.92387 5340 ft 2 kts 18°
2026-04-14 08:29 -1.33387 36.92382 5340 ft 2 kts 19°
2026-04-14 08:29 -1.33400 36.92378 5340 ft 2 kts 19°
2026-04-14 08:29 -1.33413 36.92374 5338 ft 2 kts 14°
2026-04-14 08:30 -1.33422 36.92371 5337 ft 1 kts 350°
2026-04-14 08:30 -1.33428 36.92372 5337 ft 1 kts 312°
2026-04-14 08:30 -1.33433 36.92378 5339 ft 2 kts 286°
2026-04-14 08:30 -1.33435 36.92390 5340 ft 2 kts 272°
2026-04-14 08:31 -1.33436 36.92403 5339 ft 2 kts 269°
2026-04-14 08:31 -1.33433 36.92422 5338 ft 1 kts 258°
2026-04-14 08:31 -1.33432 36.92427 5337 ft 1 kts 258°
2026-04-14 08:32 -1.33431 36.92433 5337 ft 0 kts 258°
2026-04-14 08:33 -1.33433 36.92422 5338 ft 2 kts 259°
2026-04-14 08:33 -1.33435 36.92402 5339 ft 6 kts 267°
2026-04-14 08:33 -1.33445 36.92350 5338 ft 8 kts 244°
2026-04-14 08:33 -1.33476 36.92305 5337 ft 8 kts 235°
2026-04-14 08:34 -1.33508 36.92260 5339 ft 8 kts 234°
2026-04-14 08:34 -1.33514 36.92209 5340 ft 8 kts 294°
2026-04-14 08:34 -1.33474 36.92172 5338 ft 8 kts 324°
2026-04-14 08:34 -1.33419 36.92131 5340 ft 13 kts 324°
2026-04-14 08:35 -1.33335 36.92071 5337 ft 16 kts 323°
2026-04-14 08:35 -1.33247 36.92007 5339 ft 16 kts 324°
2026-04-14 08:35 -1.33160 36.91943 5340 ft 16 kts 323°
2026-04-14 08:35 -1.33073 36.91878 5339 ft 16 kts 323°
2026-04-14 08:36 -1.32985 36.91815 5341 ft 16 kts 324°
2026-04-14 08:36 -1.32897 36.91751 5345 ft 16 kts 324°
2026-04-14 08:36 -1.32819 36.91694 5345 ft 12 kts 323°
2026-04-14 08:36 -1.32759 36.91665 5347 ft 8 kts 360°
2026-04-14 08:37 -1.32712 36.91695 5347 ft 8 kts 51°
2026-04-14 08:37 -1.32660 36.91765 5342 ft 27 kts 54°
2026-04-14 08:37 -1.32401 36.92122 5335 ft 101 kts 54°
2026-04-14 08:37 -1.31857 36.92873 5313 ft 165 kts 53°
2026-04-14 08:38 -1.31115 36.93863 5858 ft 180 kts 55°
2026-04-14 08:38 -1.30348 36.94861 6774 ft 182 kts 55°
2026-04-14 08:38 -1.29569 36.95878 7275 ft 186 kts 53°
2026-04-14 08:38 -1.28784 36.96922 7738 ft 188 kts 55°
2026-04-14 08:39 -1.27994 36.97970 8240 ft 187 kts 55°
2026-04-14 08:39 -1.27215 36.99017 8671 ft 193 kts 56°
2026-04-14 08:39 -1.26370 37.00158 8748 ft 216 kts 55°
2026-04-14 08:39 -1.25440 37.01414 8941 ft 234 kts 56°
2026-04-14 08:40 -1.24424 37.02787 9125 ft 255 kts 55°
2026-04-14 08:40 -1.23336 37.04253 9494 ft 271 kts 55°
2026-04-14 08:40 -1.22188 37.05790 10026 ft 280 kts 55°
2026-04-14 08:40 -1.21009 37.07327 10563 ft 282 kts 49°
2026-04-14 08:41 -1.19353 37.08424 11039 ft 296 kts 20°
2026-04-14 08:41 -1.17291 37.08623 11700 ft 303 kts 355°
2026-04-14 08:41 -1.15268 37.08009 12432 ft 309 kts 334°
2026-04-14 08:41 -1.13548 37.06677 13020 ft 319 kts 311°
2026-04-14 08:42 -1.12402 37.04757 13583 ft 328 kts 290°
2026-04-14 08:42 -1.11886 37.02539 14137 ft 330 kts 279°
2026-04-14 08:42 -1.11526 37.00210 14343 ft 351 kts 279°
2026-04-14 08:42 -1.11143 36.97728 14483 ft 373 kts 279°
2026-04-14 08:43 -1.10725 36.95109 14795 ft 389 kts 279°
2026-04-14 08:43 -1.10287 36.92420 15429 ft 393 kts 279°
2026-04-14 08:43 -1.09837 36.89713 16111 ft 397 kts 279°
2026-04-14 08:43 -1.09376 36.86975 16736 ft 403 kts 279°
2026-04-14 08:44 -1.08905 36.84198 17437 ft 407 kts 279°
2026-04-14 08:44 -1.08427 36.81393 18097 ft 412 kts 279°
2026-04-14 08:44 -1.07943 36.78560 18807 ft 414 kts 279°
2026-04-14 08:44 -1.07454 36.75706 19435 ft 417 kts 279°
2026-04-14 08:45 -1.06965 36.72853 20119 ft 418 kts 279°
2026-04-14 08:45 -1.06472 36.69979 20767 ft 422 kts 279°
2026-04-14 08:45 -1.05973 36.67068 21378 ft 426 kts 279°
2026-04-14 08:45 -1.05468 36.64123 21852 ft 434 kts 279°
2026-04-14 08:46 -1.04958 36.61145 22540 ft 435 kts 279°
2026-04-14 08:46 -1.04447 36.58166 23220 ft 438 kts 279°
2026-04-14 08:46 -1.03930 36.55155 23873 ft 441 kts 279°
2026-04-14 08:46 -1.03404 36.52090 24420 ft 444 kts 279°
2026-04-14 08:47 -1.02882 36.49042 24975 ft 446 kts 280°
2026-04-14 08:47 -1.02355 36.45970 25430 ft 452 kts 280°
2026-04-14 08:47 -1.01816 36.42827 26004 ft 453 kts 280°
2026-04-14 08:47 -1.01283 36.39720 26620 ft 453 kts 280°
2026-04-14 08:48 -1.00751 36.36617 27203 ft 454 kts 280°
2026-04-14 08:48 -1.00216 36.33496 27667 ft 458 kts 279°
2026-04-14 08:48 -0.99675 36.30342 28126 ft 462 kts 279°
2026-04-14 08:48 -0.99132 36.27175 28612 ft 464 kts 279°
2026-04-14 08:49 -0.98585 36.23992 29104 ft 466 kts 279°
2026-04-14 08:49 -0.98029 36.20750 29622 ft 468 kts 279°
2026-04-14 08:49 -0.97485 36.17580 30074 ft 470 kts 279°
2026-04-14 08:49 -0.96933 36.14358 30465 ft 472 kts 279°
2026-04-14 08:50 -0.96376 36.11113 30815 ft 475 kts 279°
2026-04-14 08:50 -0.95817 36.07855 31164 ft 477 kts 279°
2026-04-14 08:50 -0.95255 36.04583 31517 ft 479 kts 279°
2026-04-14 08:50 -0.94692 36.01298 31847 ft 481 kts 279°
2026-04-14 08:51 -0.94126 35.98005 32169 ft 482 kts 279°
2026-04-14 08:51 -0.93558 35.94695 32466 ft 484 kts 279°
2026-04-14 08:51 -0.92989 35.91380 32780 ft 485 kts 279°
2026-04-14 08:51 -0.92417 35.88048 33040 ft 487 kts 279°
2026-04-14 08:52 -0.91843 35.84703 33260 ft 490 kts 279°
2026-04-14 08:52 -0.91267 35.81349 33506 ft 491 kts 279°
2026-04-14 08:52 -0.90690 35.77991 33846 ft 490 kts 279°
2026-04-14 08:52 -0.90116 35.74647 34245 ft 487 kts 279°
2026-04-14 08:53 -0.89544 35.71311 34529 ft 486 kts 279°
2026-04-14 08:53 -0.88973 35.67988 34777 ft 487 kts 279°
2026-04-14 08:53 -0.88402 35.64661 35137 ft 483 kts 279°
2026-04-14 08:53 -0.87835 35.61363 35552 ft 479 kts 279°
2026-04-14 08:54 -0.87273 35.58093 35979 ft 476 kts 279°
2026-04-14 08:54 -0.86715 35.54843 36276 ft 474 kts 279°
2026-04-14 08:54 -0.86157 35.51591 36558 ft 475 kts 279°
2026-04-14 08:54 -0.85599 35.48345 36932 ft 471 kts 279°
2026-04-14 08:55 -0.85046 35.45120 37321 ft 469 kts 279°
2026-04-14 08:55 -0.84496 35.41923 37711 ft 466 kts 279°
2026-04-14 08:55 -0.83947 35.38725 37900 ft 468 kts 279°
2026-04-14 08:55 -0.83363 35.35529 38096 ft 469 kts 282°
2026-04-14 08:56 -0.82547 35.32362 38374 ft 468 kts 285°
2026-04-14 08:56 -0.81603 35.29269 38779 ft 464 kts 287°
2026-04-14 08:56 -0.80617 35.26195 38999 ft 464 kts 287°
2026-04-14 08:56 -0.79633 35.23118 39177 ft 464 kts 287°
2026-04-14 08:57 -0.78670 35.20044 39374 ft 464 kts 287°
2026-04-14 08:57 -0.77727 35.16959 39543 ft 464 kts 286°
2026-04-14 08:57 -0.76798 35.13873 39765 ft 463 kts 286°
2026-04-14 08:57 -0.75879 35.10788 39926 ft 464 kts 286°
2026-04-14 08:58 -0.74041 35.04594 40006 ft 465 kts 286°
2026-04-14 08:58 -0.72206 34.98416 40002 ft 462 kts 286°
2026-04-14 08:59 -0.70386 34.92297 39998 ft 458 kts 286°
2026-04-14 08:59 -0.68573 34.86205 39999 ft 457 kts 286°
2026-04-14 09:00 -0.66762 34.80119 39985 ft 457 kts 286°
2026-04-14 09:00 -0.64951 34.74032 39979 ft 457 kts 286°
2026-04-14 09:01 -0.63132 34.67918 39974 ft 459 kts 286°
2026-04-14 09:01 -0.61319 34.61828 39950 ft 462 kts 286°
2026-04-14 09:02 -0.59508 34.55659 39950 ft 464 kts 285°
2026-04-14 09:02 -0.57795 34.49427 39958 ft 466 kts 285°
2026-04-14 09:03 -0.56094 34.43167 39947 ft 468 kts 285°
2026-04-14 09:03 -0.54375 34.36898 39944 ft 469 kts 285°
2026-04-14 09:04 -0.52644 34.30614 39942 ft 469 kts 285°
2026-04-14 09:04 -0.50911 34.24328 39941 ft 469 kts 285°
2026-04-14 09:05 -0.49180 34.18047 39949 ft 469 kts 285°
2026-04-14 09:05 -0.47450 34.11767 39943 ft 468 kts 285°
2026-04-14 09:06 -0.45723 34.05497 39946 ft 467 kts 285°
2026-04-14 09:06 -0.43999 33.99238 39949 ft 467 kts 285°
2026-04-14 09:07 -0.42191 33.93009 39943 ft 467 kts 288°
2026-04-14 09:07 -0.40104 33.86860 39951 ft 468 kts 289°
2026-04-14 09:08 -0.37997 33.80702 39955 ft 469 kts 288°
2026-04-14 09:08 -0.35927 33.74514 39954 ft 470 kts 288°
2026-04-14 09:09 -0.33871 33.68315 39951 ft 471 kts 288°
2026-04-14 09:09 -0.31808 33.62092 39951 ft 471 kts 288°
2026-04-14 09:10 -0.30094 33.56926 39966 ft 472 kts 288°
2026-04-14 09:10 -0.28025 33.50695 39949 ft 473 kts 288°
2026-04-14 09:11 -0.25968 33.44454 39952 ft 473 kts 287°
2026-04-14 09:11 -0.24013 33.38179 39952 ft 473 kts 287°
2026-04-14 09:12 -0.22083 33.31897 39958 ft 473 kts 287°
2026-04-14 09:12 -0.20142 33.25622 39960 ft 473 kts 287°
2026-04-14 09:13 -0.18195 33.19354 39961 ft 472 kts 287°
2026-04-14 09:13 -0.16247 33.13096 39953 ft 471 kts 287°
2026-04-14 09:14 -0.14300 33.06834 39953 ft 471 kts 287°
2026-04-14 09:14 -0.12368 33.00623 39978 ft 471 kts 287°
2026-04-14 09:15 -0.10424 32.94371 39959 ft 472 kts 287°
2026-04-14 09:15 -0.08476 32.88106 39962 ft 472 kts 287°
2026-04-14 09:16 -0.06532 32.81854 39965 ft 472 kts 287°
2026-04-14 09:16 -0.04587 32.75600 39968 ft 471 kts 287°
2026-04-14 09:17 -0.02642 32.69347 39972 ft 471 kts 287°
2026-04-14 09:17 -0.00699 32.63097 39987 ft 471 kts 287°
2026-04-14 09:18 0.01244 32.56849 39970 ft 471 kts 286°
2026-04-14 09:18 0.03185 32.50603 39971 ft 471 kts 286°
2026-04-14 09:19 0.04997 32.44320 39970 ft 470 kts 281°
2026-04-14 09:19 0.05777 32.37862 39983 ft 469 kts 272°
2026-04-14 09:20 0.06149 32.31357 39979 ft 468 kts 272°
2026-04-14 09:20 0.06538 32.24872 39968 ft 468 kts 273°
2026-04-14 09:21 0.06953 32.18388 39979 ft 467 kts 273°
2026-04-14 09:21 0.07376 32.11917 39972 ft 467 kts 273°
2026-04-14 09:22 0.07798 32.05452 39988 ft 466 kts 273°
2026-04-14 09:22 0.08219 31.98991 39976 ft 466 kts 274°
2026-04-14 09:23 0.08639 31.92540 39986 ft 465 kts 274°
2026-04-14 09:23 0.09059 31.86097 39988 ft 465 kts 274°
2026-04-14 09:24 0.09478 31.79648 39986 ft 465 kts 274°
2026-04-14 09:24 0.09896 31.73231 40000 ft 466 kts 274°
2026-04-14 09:25 0.10316 31.66770 39994 ft 466 kts 274°
2026-04-14 09:25 0.10730 31.60304 40008 ft 467 kts 274°
2026-04-14 09:26 0.11144 31.53833 40003 ft 467 kts 274°
2026-04-14 09:26 0.11559 31.47357 40025 ft 468 kts 274°
2026-04-14 09:27 0.11975 31.40862 40036 ft 469 kts 274°
2026-04-14 09:27 0.12393 31.34357 40018 ft 468 kts 274°
2026-04-14 09:28 0.12818 31.27874 40041 ft 468 kts 274°
2026-04-14 09:28 0.13244 31.21389 40033 ft 467 kts 274°
2026-04-14 09:29 0.13669 31.14925 40033 ft 466 kts 274°
2026-04-14 09:29 0.14093 31.08463 40023 ft 466 kts 274°
2026-04-14 09:30 0.14514 31.02020 40033 ft 465 kts 274°
2026-04-14 09:30 0.14937 30.95574 40040 ft 464 kts 274°
2026-04-14 09:31 0.15358 30.89140 40034 ft 465 kts 274°
2026-04-14 09:31 0.15780 30.82707 40032 ft 463 kts 274°
2026-04-14 09:32 0.16201 30.76288 40043 ft 463 kts 274°
2026-04-14 09:33 0.16831 30.66657 40038 ft 463 kts 274°
2026-04-14 09:33 0.17252 30.60242 40032 ft 463 kts 274°
2026-04-14 09:34 0.17644 30.53817 40029 ft 463 kts 274°
2026-04-14 09:34 0.18007 30.47388 40020 ft 464 kts 273°
2026-04-14 09:35 0.18373 30.40946 40020 ft 464 kts 274°
2026-04-14 09:35 0.18743 30.34508 40023 ft 464 kts 274°
2026-04-14 09:36 0.19115 30.28064 40055 ft 464 kts 274°
2026-04-14 09:36 0.19488 30.21613 40036 ft 465 kts 274°
2026-04-14 09:37 0.19860 30.15163 40051 ft 465 kts 274°
2026-04-14 09:37 0.20229 30.08761 40050 ft 464 kts 273°
2026-04-14 09:38 0.20602 30.02313 40052 ft 464 kts 274°
2026-04-14 09:38 0.20972 29.95883 40024 ft 463 kts 274°
2026-04-14 09:39 0.21344 29.89457 40028 ft 463 kts 274°
2026-04-14 09:39 0.21731 29.83034 40028 ft 463 kts 274°
2026-04-14 09:40 0.22125 29.76612 40017 ft 464 kts 274°
2026-04-14 09:40 0.22519 29.70162 40009 ft 465 kts 274°
2026-04-14 09:41 0.22912 29.63707 39993 ft 466 kts 274°
2026-04-14 09:41 0.23304 29.57243 39994 ft 466 kts 274°
2026-04-14 09:42 0.23698 29.50775 39988 ft 467 kts 273°
2026-04-14 09:42 0.24091 29.44295 39979 ft 467 kts 273°
2026-04-14 09:43 0.24549 29.37822 39981 ft 467 kts 274°
2026-04-14 09:43 0.25044 29.31347 39980 ft 468 kts 273°
2026-04-14 09:44 0.25427 29.24860 39967 ft 468 kts 273°
2026-04-14 09:44 0.25800 29.18370 39965 ft 468 kts 273°
2026-04-14 09:45 0.26189 29.11882 39955 ft 468 kts 273°
2026-04-14 09:45 0.26586 29.05388 39947 ft 468 kts 273°
2026-04-14 09:46 0.26982 28.98930 39923 ft 468 kts 273°
2026-04-14 09:46 0.27380 28.92436 39919 ft 469 kts 273°
2026-04-14 09:47 0.27778 28.85934 39913 ft 469 kts 273°
2026-04-14 09:47 0.28175 28.79437 39913 ft 468 kts 273°
2026-04-14 09:48 0.28573 28.72944 39911 ft 468 kts 273°
2026-04-14 09:48 0.28970 28.66448 39910 ft 469 kts 273°
2026-04-14 09:49 0.29369 28.59936 39900 ft 470 kts 273°
2026-04-14 09:49 0.29768 28.53417 39892 ft 470 kts 273°
2026-04-14 09:50 0.30166 28.46905 39899 ft 470 kts 273°
2026-04-14 09:50 0.30564 28.40400 39902 ft 469 kts 273°
2026-04-14 09:51 0.30962 28.33886 39890 ft 470 kts 273°
2026-04-14 09:51 0.31361 28.27365 39900 ft 470 kts 272°
2026-04-14 09:52 0.31760 28.20830 39899 ft 472 kts 273°
2026-04-14 09:52 0.32161 28.14285 39895 ft 472 kts 272°
2026-04-14 09:53 0.32561 28.07734 39887 ft 473 kts 273°
2026-04-14 09:53 0.32962 28.01169 39887 ft 473 kts 273°
2026-04-14 09:54 0.33363 27.94604 39893 ft 474 kts 273°
2026-04-14 09:54 0.33765 27.88071 39896 ft 474 kts 273°
2026-04-14 09:55 0.34171 27.81492 39886 ft 474 kts 273°
2026-04-14 09:55 0.34509 27.76023 39889 ft 474 kts 273°
2026-04-14 09:56 0.34915 27.69449 39894 ft 474 kts 273°
2026-04-14 09:56 0.35320 27.62870 39888 ft 474 kts 273°
2026-04-14 09:57 0.35725 27.56298 39898 ft 474 kts 273°
2026-04-14 09:57 0.36130 27.49722 39893 ft 474 kts 273°
2026-04-14 09:58 0.36536 27.43144 39899 ft 474 kts 273°
2026-04-14 09:58 0.36941 27.36572 39897 ft 474 kts 273°
2026-04-14 09:59 0.37346 27.30000 39899 ft 474 kts 273°
2026-04-14 09:59 0.37751 27.23424 39894 ft 474 kts 273°
2026-04-14 10:00 0.38156 27.16845 39899 ft 474 kts 273°
2026-04-14 10:00 0.38558 27.10333 39902 ft 472 kts 273°
2026-04-14 10:01 0.38961 27.03785 39897 ft 472 kts 273°
2026-04-14 10:01 0.39363 26.97250 39899 ft 471 kts 273°
2026-04-14 10:02 0.39765 26.90722 39892 ft 471 kts 273°
2026-04-14 10:02 0.40167 26.84191 39895 ft 470 kts 273°
2026-04-14 10:03 0.40568 26.77671 39892 ft 470 kts 273°
2026-04-14 10:03 0.40970 26.71145 39890 ft 471 kts 273°
2026-04-14 10:04 0.41372 26.64612 39884 ft 471 kts 273°
2026-04-14 10:04 0.41775 26.58076 39891 ft 471 kts 273°
2026-04-14 10:05 0.42176 26.51540 39879 ft 471 kts 273°
2026-04-14 10:05 0.42578 26.45010 39888 ft 471 kts 273°
2026-04-14 10:06 0.42980 26.38474 39883 ft 471 kts 273°
2026-04-14 10:06 0.43381 26.31950 39882 ft 471 kts 273°
2026-04-14 10:07 0.43783 26.25412 39890 ft 471 kts 273°
2026-04-14 10:07 0.44184 26.18886 39878 ft 471 kts 273°
2026-04-14 10:08 0.44589 26.12349 39881 ft 471 kts 273°
2026-04-14 10:08 0.44996 26.05817 39879 ft 471 kts 273°
2026-04-14 10:09 0.45403 25.99295 39881 ft 471 kts 273°
2026-04-14 10:09 0.45810 25.92755 39875 ft 471 kts 273°
2026-04-14 10:10 0.46217 25.86216 39884 ft 471 kts 273°
2026-04-14 10:10 0.46623 25.79683 39876 ft 471 kts 273°
2026-04-14 10:11 0.47029 25.73150 39877 ft 471 kts 273°
2026-04-14 10:11 0.47435 25.66621 39878 ft 471 kts 273°
2026-04-14 10:12 0.47839 25.60127 39866 ft 471 kts 274°
2026-04-14 10:12 0.48246 25.53592 39876 ft 471 kts 274°
2026-04-14 10:13 0.48653 25.47048 39869 ft 472 kts 274°
2026-04-14 10:13 0.49058 25.40515 39873 ft 471 kts 274°
2026-04-14 10:14 0.49468 25.33976 39865 ft 471 kts 274°
2026-04-14 10:14 0.50548 25.27522 39868 ft 471 kts 284°
2026-04-14 10:15 0.52152 25.21169 39871 ft 472 kts 284°
2026-04-14 10:15 0.53755 25.14792 39867 ft 473 kts 284°
2026-04-14 10:16 0.55330 25.08400 39871 ft 474 kts 284°
2026-04-14 10:16 0.56897 25.01989 39866 ft 475 kts 284°
2026-04-14 10:17 0.58464 24.95576 39865 ft 476 kts 284°
2026-04-14 10:17 0.60035 24.89152 39872 ft 477 kts 284°
2026-04-14 10:18 0.62400 24.79483 39870 ft 478 kts 284°
2026-04-14 10:18 0.63977 24.73031 39868 ft 478 kts 284°
2026-04-14 10:19 0.65553 24.66583 39868 ft 478 kts 284°
2026-04-14 10:19 0.67128 24.60140 39867 ft 477 kts 284°
2026-04-14 10:20 0.68704 24.53698 39867 ft 477 kts 284°
2026-04-14 10:20 0.70282 24.47305 39864 ft 477 kts 284°
2026-04-14 10:21 0.71894 24.40835 39869 ft 477 kts 284°
2026-04-14 10:21 0.73485 24.34440 39867 ft 477 kts 284°
2026-04-14 10:22 0.75086 24.27994 39871 ft 478 kts 284°
2026-04-14 10:22 0.76691 24.21530 39869 ft 479 kts 284°
2026-04-14 10:23 0.78299 24.15052 39871 ft 480 kts 284°
2026-04-14 10:23 0.79906 24.08577 39868 ft 480 kts 284°
2026-04-14 10:24 0.81513 24.02103 39868 ft 480 kts 284°
2026-04-14 10:24 0.83122 23.95622 39869 ft 480 kts 284°
2026-04-14 10:25 0.84727 23.89154 39866 ft 480 kts 284°
2026-04-14 10:25 0.86322 23.82725 39867 ft 479 kts 284°
2026-04-14 10:26 0.87926 23.76258 39868 ft 479 kts 284°
2026-04-14 10:26 0.89530 23.69795 39865 ft 480 kts 284°
2026-04-14 10:27 0.91139 23.63313 39875 ft 481 kts 284°
2026-04-14 10:27 0.92751 23.56815 39871 ft 482 kts 284°
2026-04-14 10:28 0.94368 23.50297 39866 ft 483 kts 284°
2026-04-14 10:28 0.95985 23.43775 39870 ft 484 kts 284°
2026-04-14 10:29 0.97602 23.37255 39876 ft 483 kts 284°
2026-04-14 10:29 0.99213 23.30758 39868 ft 481 kts 284°
2026-04-14 10:30 1.00820 23.24276 39865 ft 480 kts 284°
2026-04-14 10:30 1.02423 23.17811 39875 ft 479 kts 284°
2026-04-14 10:31 1.04025 23.11350 39872 ft 479 kts 284°
2026-04-14 10:31 1.05627 23.04886 39873 ft 480 kts 284°
2026-04-14 10:32 1.07233 22.98416 39881 ft 479 kts 284°
2026-04-14 10:32 1.08836 22.91945 39873 ft 479 kts 284°
2026-04-14 10:33 1.10438 22.85474 39873 ft 479 kts 284°
2026-04-14 10:33 1.12028 22.79060 39881 ft 479 kts 284°
2026-04-14 10:34 1.14430 22.69364 39871 ft 479 kts 284°
2026-04-14 10:35 1.16032 22.62899 39875 ft 479 kts 284°
2026-04-14 10:35 1.17636 22.56425 39874 ft 480 kts 284°
2026-04-14 10:36 1.19237 22.49957 39869 ft 480 kts 285°
2026-04-14 10:36 1.20841 22.43483 39879 ft 480 kts 284°
2026-04-14 10:37 1.22445 22.37004 39869 ft 480 kts 284°
2026-04-14 10:37 1.24048 22.30531 39870 ft 480 kts 284°
2026-04-14 10:38 1.25380 22.25146 39871 ft 480 kts 284°
2026-04-14 10:38 1.26984 22.18669 39869 ft 480 kts 284°
2026-04-14 10:39 1.28846 22.11130 39874 ft 480 kts 284°
2026-04-14 10:39 1.30184 22.05708 39869 ft 479 kts 284°
2026-04-14 10:40 1.31779 21.99244 39869 ft 479 kts 284°
2026-04-14 10:40 1.33372 21.92782 39863 ft 479 kts 284°
2026-04-14 10:41 1.34956 21.86359 39868 ft 479 kts 284°
2026-04-14 10:41 1.36558 21.79864 39887 ft 479 kts 284°
2026-04-14 10:42 1.38156 21.73386 39872 ft 480 kts 284°
2026-04-14 10:42 1.39757 21.66891 39870 ft 482 kts 284°
2026-04-14 10:43 1.41355 21.60407 39864 ft 485 kts 284°
2026-04-14 10:43 1.42966 21.53869 39867 ft 485 kts 284°
2026-04-14 10:44 1.44573 21.47332 39863 ft 483 kts 284°
2026-04-14 10:44 1.46165 21.40821 39864 ft 481 kts 284°
2026-04-14 10:45 1.47749 21.34337 39872 ft 480 kts 284°
2026-04-14 10:45 1.49333 21.27855 39863 ft 480 kts 284°
2026-04-14 10:46 1.50916 21.21379 39867 ft 479 kts 284°
2026-04-14 10:46 1.52499 21.14902 39865 ft 480 kts 284°
2026-04-14 10:47 1.54084 21.08418 39864 ft 480 kts 284°
2026-04-14 10:47 1.55668 21.01934 39864 ft 481 kts 284°
2026-04-14 10:48 1.57254 20.95440 39859 ft 481 kts 284°
2026-04-14 10:48 1.58841 20.88942 39855 ft 482 kts 284°
2026-04-14 10:49 1.60431 20.82433 39861 ft 482 kts 284°
2026-04-14 10:49 1.62018 20.75934 39858 ft 482 kts 284°
2026-04-14 10:50 1.63608 20.69420 39858 ft 482 kts 284°
2026-04-14 10:50 1.65196 20.62917 39858 ft 482 kts 284°
2026-04-14 10:51 1.66787 20.56418 39858 ft 481 kts 284°
2026-04-14 10:51 1.68411 20.49929 39855 ft 481 kts 284°
2026-04-14 10:52 1.70043 20.43438 39858 ft 481 kts 284°
2026-04-14 10:52 1.71661 20.36977 39856 ft 482 kts 284°
2026-04-14 10:53 1.73287 20.30475 39863 ft 482 kts 284°
2026-04-14 10:53 1.74914 20.23964 39863 ft 483 kts 284°
2026-04-14 10:54 1.76540 20.17458 39861 ft 483 kts 284°
2026-04-14 10:54 1.78167 20.10947 39859 ft 483 kts 285°
2026-04-14 10:55 1.79795 20.04431 39863 ft 483 kts 284°
2026-04-14 10:55 1.81432 19.97877 39859 ft 483 kts 284°
2026-04-14 10:56 1.83063 19.91312 39853 ft 483 kts 284°
2026-04-14 10:56 1.84657 19.84775 39867 ft 483 kts 284°
2026-04-14 10:57 1.86245 19.78244 39855 ft 483 kts 284°
2026-04-14 10:57 1.87837 19.71714 39862 ft 484 kts 284°
2026-04-14 10:58 1.89430 19.65187 39863 ft 484 kts 284°
2026-04-14 10:58 1.91026 19.58647 39864 ft 484 kts 284°
2026-04-14 10:59 1.92622 19.52103 39866 ft 485 kts 284°
2026-04-14 10:59 1.94226 19.45549 39866 ft 485 kts 284°
2026-04-14 11:00 1.95858 19.38991 39874 ft 486 kts 284°
2026-04-14 11:00 1.97495 19.32418 39866 ft 486 kts 284°
2026-04-14 11:01 1.99115 19.25889 39866 ft 486 kts 284°
2026-04-14 11:01 2.00746 19.19318 39864 ft 486 kts 284°
2026-04-14 11:02 2.02355 19.12745 39862 ft 486 kts 284°
2026-04-14 11:02 2.03954 19.06156 39860 ft 487 kts 284°
2026-04-14 11:03 2.05553 18.99570 39864 ft 487 kts 284°
2026-04-14 11:03 2.07155 18.92985 39865 ft 488 kts 284°
2026-04-14 11:04 2.08760 18.86390 39866 ft 488 kts 284°
2026-04-14 11:04 2.10365 18.79790 39868 ft 488 kts 284°
2026-04-14 11:05 2.11970 18.73188 39866 ft 489 kts 284°
2026-04-14 11:05 2.13570 18.66610 39871 ft 489 kts 284°
2026-04-14 11:06 2.15178 18.59992 39864 ft 490 kts 284°
2026-04-14 11:06 2.16786 18.53374 39869 ft 490 kts 284°
2026-04-14 11:07 2.18401 18.46758 39872 ft 490 kts 285°
2026-04-14 11:07 2.20062 18.40144 39877 ft 490 kts 285°
2026-04-14 11:08 2.21733 18.33515 39876 ft 491 kts 285°
2026-04-14 11:08 2.23399 18.26878 39876 ft 491 kts 285°
2026-04-14 11:09 2.25056 18.20260 39873 ft 491 kts 285°
2026-04-14 11:09 2.26716 18.13634 39873 ft 491 kts 285°
2026-04-14 11:10 2.28991 18.03627 39868 ft 491 kts 283°
2026-04-14 11:10 2.30370 17.96944 39877 ft 491 kts 283°
2026-04-14 11:11 2.31787 17.90247 39863 ft 491 kts 283°
2026-04-14 11:11 2.33209 17.83609 39873 ft 491 kts 283°
2026-04-14 11:12 2.34639 17.76925 39870 ft 491 kts 283°
2026-04-14 11:12 2.35892 17.71337 39866 ft 491 kts 284°
2026-04-14 11:13 2.37459 17.64678 39873 ft 492 kts 284°
2026-04-14 11:13 2.38964 17.58014 39872 ft 492 kts 284°
2026-04-14 11:14 2.40452 17.51334 39866 ft 492 kts 284°
2026-04-14 11:14 2.41943 17.44661 39874 ft 492 kts 284°
2026-04-14 11:15 2.43445 17.37966 39879 ft 492 kts 284°
2026-04-14 11:15 2.44949 17.31270 39872 ft 493 kts 284°
2026-04-14 11:16 2.46451 17.24581 39881 ft 493 kts 284°
2026-04-14 11:16 2.47955 17.17878 39858 ft 493 kts 284°
2026-04-14 11:17 2.49456 17.11186 39872 ft 493 kts 284°
2026-04-14 11:17 2.50955 17.04503 39878 ft 493 kts 284°
2026-04-14 11:18 2.52454 16.97814 39874 ft 493 kts 284°
2026-04-14 11:18 2.53954 16.91122 39881 ft 493 kts 284°
2026-04-14 11:19 2.55456 16.84421 39872 ft 493 kts 284°
2026-04-14 11:19 2.56949 16.77759 39883 ft 493 kts 284°
2026-04-14 11:20 2.58451 16.71052 39865 ft 493 kts 284°
2026-04-14 11:20 2.59945 16.64371 39878 ft 492 kts 284°
2026-04-14 11:21 2.61436 16.57684 39877 ft 492 kts 284°
2026-04-14 11:21 2.62931 16.51000 39867 ft 491 kts 284°
2026-04-14 11:22 2.64426 16.44323 39872 ft 491 kts 284°
2026-04-14 11:22 2.65919 16.37652 39863 ft 491 kts 284°
2026-04-14 11:23 2.67403 16.31021 39877 ft 491 kts 283°
2026-04-14 11:23 2.68897 16.24346 39873 ft 491 kts 283°
2026-04-14 11:24 2.70390 16.17677 39865 ft 491 kts 284°
2026-04-14 11:24 2.71890 16.10960 39867 ft 491 kts 283°
2026-04-14 11:25 2.73381 16.04283 39871 ft 492 kts 284°
2026-04-14 11:25 2.74872 15.97611 39874 ft 492 kts 283°
2026-04-14 11:26 2.76361 15.90940 39865 ft 492 kts 283°
2026-04-14 11:26 2.77844 15.84304 39866 ft 492 kts 283°
2026-04-14 11:27 2.79333 15.77629 39878 ft 492 kts 283°
2026-04-14 11:27 2.80822 15.70950 39874 ft 492 kts 283°
2026-04-14 11:28 2.82306 15.64278 39874 ft 492 kts 283°
2026-04-14 11:28 2.83795 15.57604 39881 ft 491 kts 283°
2026-04-14 11:29 2.85281 15.50934 39881 ft 491 kts 283°
2026-04-14 11:29 2.86762 15.44277 39881 ft 490 kts 283°
2026-04-14 11:30 2.88244 15.37623 39875 ft 490 kts 283°
2026-04-14 11:30 2.89726 15.30964 39879 ft 490 kts 283°
2026-04-14 11:31 2.91210 15.24306 39873 ft 490 kts 283°
2026-04-14 11:31 2.92690 15.17657 39870 ft 490 kts 283°
2026-04-14 11:32 2.94169 15.11008 39876 ft 490 kts 283°
2026-04-14 11:32 2.95647 15.04358 39887 ft 489 kts 283°
2026-04-14 11:33 2.97123 14.97714 39871 ft 489 kts 283°
2026-04-14 11:34 2.99333 14.87767 39885 ft 488 kts 283°
2026-04-14 11:34 3.00804 14.81141 39867 ft 487 kts 283°
2026-04-14 11:35 3.02273 14.74524 39877 ft 487 kts 283°
2026-04-14 11:35 3.03739 14.67920 39883 ft 486 kts 283°
2026-04-14 11:36 3.05205 14.61312 39885 ft 486 kts 283°
2026-04-14 11:36 3.06669 14.54707 39876 ft 486 kts 283°
2026-04-14 11:37 3.08136 14.48091 39882 ft 487 kts 283°
2026-04-14 11:37 3.09601 14.41485 39890 ft 487 kts 283°
2026-04-14 11:38 3.11068 14.34862 39881 ft 487 kts 283°
2026-04-14 11:38 3.12533 14.28244 39886 ft 487 kts 283°
2026-04-14 11:39 3.13999 14.21625 39878 ft 487 kts 283°
2026-04-14 11:39 3.15465 14.15005 39882 ft 488 kts 283°
2026-04-14 11:40 3.16932 14.08378 39885 ft 488 kts 283°
2026-04-14 11:40 3.18400 14.01748 39881 ft 488 kts 283°
2026-04-14 11:41 3.19867 13.95121 39888 ft 488 kts 283°
2026-04-14 11:41 3.21332 13.88495 39890 ft 488 kts 283°
2026-04-14 11:42 3.22798 13.81868 39884 ft 487 kts 283°
2026-04-14 11:42 3.24262 13.75243 39889 ft 488 kts 283°
2026-04-14 11:43 3.25725 13.68620 39900 ft 488 kts 283°
2026-04-14 11:43 3.27189 13.61993 39893 ft 487 kts 283°
2026-04-14 11:44 3.28652 13.55367 39891 ft 488 kts 283°
2026-04-14 11:44 3.30119 13.48737 39901 ft 488 kts 283°
2026-04-14 11:45 3.31586 13.42115 39910 ft 488 kts 283°
2026-04-14 11:45 3.33051 13.35491 39903 ft 488 kts 283°
2026-04-14 11:46 3.34514 13.28868 39906 ft 487 kts 283°
2026-04-14 11:46 3.35982 13.22241 39907 ft 487 kts 283°
2026-04-14 11:47 3.37445 13.15620 39919 ft 488 kts 283°
2026-04-14 11:47 3.38908 13.09001 39917 ft 487 kts 283°
2026-04-14 11:48 3.40371 13.02374 39926 ft 487 kts 283°
2026-04-14 11:48 3.41833 12.95750 39930 ft 487 kts 283°
2026-04-14 11:49 3.43295 12.89125 39934 ft 487 kts 283°
2026-04-14 11:49 3.44756 12.82505 39924 ft 488 kts 283°
2026-04-14 11:50 3.45971 12.76991 39932 ft 488 kts 283°
2026-04-14 11:50 3.47432 12.70365 39938 ft 488 kts 282°
2026-04-14 11:51 3.49622 12.60417 39943 ft 487 kts 282°
2026-04-14 11:51 3.51075 12.53801 39945 ft 488 kts 282°
2026-04-14 11:52 3.52526 12.47170 39935 ft 488 kts 282°
2026-04-14 11:52 3.53980 12.40538 39945 ft 487 kts 282°
2026-04-14 11:53 3.55435 12.33913 39945 ft 488 kts 282°
2026-04-14 11:53 3.56892 12.27277 39956 ft 488 kts 282°
2026-04-14 11:54 3.58350 12.20636 39948 ft 488 kts 282°
2026-04-14 11:54 3.59807 12.13993 39969 ft 489 kts 282°
2026-04-14 11:55 3.61266 12.07341 39959 ft 489 kts 282°
2026-04-14 11:55 3.62724 12.00693 39957 ft 489 kts 282°
2026-04-14 11:56 3.64179 11.94052 39965 ft 488 kts 282°
2026-04-14 11:56 3.65633 11.87416 39978 ft 488 kts 282°
2026-04-14 11:57 3.67078 11.80818 39978 ft 488 kts 282°
2026-04-14 11:57 3.68539 11.74145 39982 ft 488 kts 282°
2026-04-14 11:58 3.69981 11.67557 39993 ft 487 kts 282°
2026-04-14 11:58 3.71434 11.60923 39997 ft 488 kts 282°
2026-04-14 11:59 3.72784 11.54278 39991 ft 487 kts 275°
2026-04-14 11:59 3.73017 11.47511 40004 ft 486 kts 269°
2026-04-14 12:00 3.72947 11.40747 39993 ft 486 kts 269°
2026-04-14 12:00 3.72951 11.33972 39994 ft 486 kts 270°
2026-04-14 12:01 3.73039 11.27199 39975 ft 487 kts 270°
2026-04-14 12:01 3.73155 11.20423 39974 ft 486 kts 270°
2026-04-14 12:02 3.73270 11.13658 39971 ft 486 kts 270°
2026-04-14 12:02 3.73381 11.06907 39975 ft 485 kts 270°
2026-04-14 12:03 3.73489 11.00159 39955 ft 485 kts 270°
2026-04-14 12:03 3.73595 10.93408 39968 ft 484 kts 270°
2026-04-14 12:04 3.73701 10.86665 39805 ft 486 kts 270°
2026-04-14 12:04 3.73754 10.83281 39400 ft 486 kts 270°
2026-04-14 12:04 3.73806 10.79915 38996 ft 481 kts 270°
2026-04-14 12:05 3.73859 10.76580 38581 ft 477 kts 270°
2026-04-14 12:05 3.73910 10.73280 38111 ft 473 kts 270°
2026-04-14 12:05 3.73962 10.70001 37651 ft 468 kts 270°
2026-04-14 12:05 3.74012 10.66755 37233 ft 464 kts 270°
2026-04-14 12:06 3.74061 10.63541 36825 ft 460 kts 270°
2026-04-14 12:06 3.74110 10.60354 36421 ft 456 kts 270°
2026-04-14 12:06 3.74158 10.57192 35999 ft 452 kts 270°
2026-04-14 12:06 3.74207 10.54056 35595 ft 449 kts 270°
2026-04-14 12:07 3.74255 10.50940 35179 ft 447 kts 270°
2026-04-14 12:07 3.74302 10.47834 34761 ft 445 kts 271°
2026-04-14 12:07 3.74349 10.44738 34327 ft 443 kts 271°
2026-04-14 12:07 3.74396 10.41659 33885 ft 442 kts 271°
2026-04-14 12:08 3.74442 10.38585 33416 ft 441 kts 271°
2026-04-14 12:08 3.74489 10.35519 32976 ft 439 kts 271°
2026-04-14 12:08 3.74535 10.32476 32559 ft 436 kts 271°
2026-04-14 12:08 3.74581 10.29449 32148 ft 434 kts 271°
2026-04-14 12:09 3.74626 10.26432 31729 ft 433 kts 271°
2026-04-14 12:09 3.74671 10.23426 31320 ft 431 kts 271°
2026-04-14 12:09 3.74716 10.20430 30924 ft 429 kts 271°
2026-04-14 12:09 3.74761 10.17450 30523 ft 428 kts 271°
2026-04-14 12:10 3.74804 10.14477 30123 ft 427 kts 271°
2026-04-14 12:10 3.74849 10.11512 29666 ft 426 kts 271°
2026-04-14 12:10 3.74893 10.08550 29215 ft 424 kts 271°
2026-04-14 12:10 3.74936 10.05601 28774 ft 423 kts 271°
2026-04-14 12:11 3.74980 10.02696 28335 ft 422 kts 271°
2026-04-14 12:11 3.75023 9.99767 27909 ft 421 kts 271°
2026-04-14 12:11 3.75066 9.96848 27622 ft 415 kts 271°
2026-04-14 12:11 3.75108 9.93975 27302 ft 411 kts 271°
2026-04-14 12:12 3.75150 9.91116 26901 ft 410 kts 271°
2026-04-14 12:12 3.75191 9.88266 26501 ft 410 kts 271°
2026-04-14 12:12 3.75233 9.85420 26089 ft 409 kts 271°
2026-04-14 12:12 3.75274 9.82570 25682 ft 409 kts 271°
2026-04-14 12:13 3.75316 9.79721 25250 ft 409 kts 271°
2026-04-14 12:13 3.75358 9.76873 24838 ft 409 kts 271°
2026-04-14 12:13 3.75399 9.74028 24420 ft 410 kts 271°
2026-04-14 12:13 3.75440 9.71176 23999 ft 410 kts 271°
2026-04-14 12:14 3.75481 9.68325 23580 ft 408 kts 271°
2026-04-14 12:14 3.75522 9.65492 23111 ft 406 kts 271°
2026-04-14 12:14 3.75562 9.62680 22670 ft 403 kts 271°
2026-04-14 12:14 3.75602 9.59885 22247 ft 399 kts 271°
2026-04-14 12:15 3.75641 9.57120 21839 ft 396 kts 271°
2026-04-14 12:15 3.75681 9.54380 21434 ft 392 kts 271°
2026-04-14 12:15 3.75719 9.51658 21031 ft 389 kts 271°
2026-04-14 12:15 3.75758 9.48960 20634 ft 386 kts 271°
2026-04-14 12:16 3.75796 9.46282 20239 ft 384 kts 271°
2026-04-14 12:16 3.75834 9.43583 19839 ft 381 kts 271°
2026-04-14 12:16 3.75871 9.40976 19444 ft 379 kts 271°
2026-04-14 12:16 3.75908 9.38345 19041 ft 377 kts 271°
2026-04-14 12:17 3.75945 9.35692 18630 ft 376 kts 271°
2026-04-14 12:17 3.75981 9.33115 18230 ft 374 kts 271°
2026-04-14 12:17 3.76018 9.30484 17780 ft 372 kts 271°
2026-04-14 12:17 3.76054 9.27935 17369 ft 369 kts 271°
2026-04-14 12:18 3.76090 9.25378 16962 ft 367 kts 271°
2026-04-14 12:18 3.76126 9.22833 16554 ft 364 kts 271°
2026-04-14 12:18 3.76162 9.20313 16171 ft 361 kts 271°
2026-04-14 12:18 3.76197 9.17807 15781 ft 358 kts 271°
2026-04-14 12:19 3.76231 9.15322 15394 ft 356 kts 271°
2026-04-14 12:19 3.76265 9.12852 15007 ft 354 kts 271°
2026-04-14 12:19 3.76403 9.10398 14622 ft 352 kts 275°
2026-04-14 12:19 3.76662 9.07968 14235 ft 350 kts 277°
2026-04-14 12:20 3.76951 9.05552 13842 ft 350 kts 277°
2026-04-14 12:20 3.77241 9.03140 13428 ft 348 kts 277°
2026-04-14 12:20 3.77522 9.00737 13017 ft 347 kts 277°
2026-04-14 12:20 3.77794 8.98346 12615 ft 345 kts 277°
2026-04-14 12:21 3.78060 8.95969 12221 ft 343 kts 276°
2026-04-14 12:21 3.78320 8.93602 11850 ft 340 kts 276°
2026-04-14 12:21 3.78577 8.91254 11467 ft 339 kts 276°
2026-04-14 12:21 3.78830 8.88929 11082 ft 331 kts 276°
2026-04-14 12:22 3.79076 8.86667 10719 ft 325 kts 277°
2026-04-14 12:22 3.79322 8.84423 10367 ft 324 kts 277°
2026-04-14 12:22 3.79567 8.82183 10036 ft 322 kts 276°
2026-04-14 12:22 3.79806 8.79961 9698 ft 321 kts 277°
2026-04-14 12:23 3.80050 8.77745 9338 ft 319 kts 276°
2026-04-14 12:23 3.80294 8.75539 8968 ft 319 kts 276°
2026-04-14 12:23 3.80532 8.73336 8597 ft 318 kts 276°
2026-04-14 12:23 3.80767 8.71149 8214 ft 311 kts 276°
2026-04-14 12:24 3.80994 8.69007 7860 ft 308 kts 276°
2026-04-14 12:24 3.81217 8.66913 7467 ft 298 kts 276°
2026-04-14 12:24 3.81443 8.64905 7090 ft 281 kts 276°
2026-04-14 12:24 3.81651 8.63016 6750 ft 266 kts 276°
2026-04-14 12:25 3.81574 8.61227 6480 ft 251 kts 248°
2026-04-14 12:25 3.80680 8.59820 6300 ft 237 kts 223°
2026-04-14 12:25 3.79496 8.58681 6026 ft 238 kts 219°
2026-04-14 12:25 3.78276 8.57596 5855 ft 238 kts 218°
2026-04-14 12:26 3.77027 8.56500 5575 ft 238 kts 219°
2026-04-14 12:26 3.75805 8.55421 5275 ft 229 kts 219°
2026-04-14 12:26 3.74631 8.54386 4986 ft 221 kts 219°
2026-04-14 12:26 3.73495 8.53370 4746 ft 217 kts 219°
2026-04-14 12:27 3.72382 8.52384 4543 ft 211 kts 219°
2026-04-14 12:27 3.71294 8.51409 4293 ft 207 kts 219°
2026-04-14 12:27 3.70107 8.50706 4086 ft 199 kts 188°
2026-04-14 12:27 3.68744 8.50834 3878 ft 200 kts 154°
2026-04-14 12:28 3.67654 8.51665 3778 ft 197 kts 131°
2026-04-14 12:28 3.66728 8.52715 3626 ft 202 kts 131°
2026-04-14 12:28 3.65815 8.53735 3528 ft 190 kts 132°
2026-04-14 12:28 3.64951 8.54683 3506 ft 184 kts 132°
2026-04-14 12:29 3.64092 8.55624 3445 ft 183 kts 133°
2026-04-14 12:29 3.63244 8.56550 3370 ft 177 kts 133°
2026-04-14 12:29 3.62472 8.57493 3283 ft 174 kts 117°
2026-04-14 12:29 3.62318 8.58690 3226 ft 182 kts 77°
2026-04-14 12:30 3.63010 8.59756 3027 ft 188 kts 43°
2026-04-14 12:30 3.63993 8.60617 2814 ft 187 kts 42°
2026-04-14 12:30 3.64953 8.61454 2567 ft 180 kts 43°
2026-04-14 12:30 3.65875 8.62263 2347 ft 172 kts 43°
2026-04-14 12:31 3.66752 8.63035 2111 ft 161 kts 42°
2026-04-14 12:31 3.67567 8.63750 1867 ft 153 kts 42°
2026-04-14 12:31 3.68337 8.64437 1703 ft 148 kts 43°
2026-04-14 12:31 3.69104 8.65123 1521 ft 148 kts 42°
2026-04-14 12:32 3.69865 8.65804 1343 ft 144 kts 41°
2026-04-14 12:32 3.70604 8.66467 1152 ft 142 kts 40°
2026-04-14 12:32 3.71341 8.67124 964 ft 142 kts 39°
2026-04-14 12:32 3.72069 8.67783 750 ft 140 kts 38°
2026-04-14 12:33 3.72790 8.68432 578 ft 140 kts 38°
2026-04-14 12:33 3.73524 8.69092 381 ft 142 kts 39°
2026-04-14 12:33 3.74260 8.69745 209 ft 141 kts 38°
2026-04-14 12:33 3.74989 8.70389 83 ft 130 kts 39°
2026-04-14 12:34 3.75515 8.70857 67 ft 68 kts 41°
2026-04-14 12:34 3.75728 8.71046 65 ft 30 kts 41°
2026-04-14 12:34 3.75834 8.71140 67 ft 30 kts 41°
2026-04-14 12:34 3.75990 8.71278 62 ft 30 kts 42°
2026-04-14 12:35 3.76146 8.71417 60 ft 30 kts 41°
2026-04-14 12:35 3.76297 8.71552 64 ft 25 kts 41°
2026-04-14 12:35 3.76398 8.71642 61 ft 16 kts 41°
2026-04-14 12:35 3.76455 8.71699 62 ft 10 kts 54°
2026-04-14 12:36 3.76481 8.71766 64 ft 10 kts 73°
2026-04-14 12:36 3.76472 8.71833 65 ft 10 kts 126°
2026-04-14 12:36 3.76427 8.71874 63 ft 9 kts 152°
2026-04-14 12:36 3.76371 8.71864 69 ft 9 kts 214°
2026-04-14 12:37 3.76326 8.71825 68 ft 9 kts 221°
2026-04-14 12:37 3.76267 8.71772 63 ft 16 kts 221°
2026-04-14 12:37 3.76170 8.71685 65 ft 20 kts 222°
2026-04-14 12:37 3.76072 8.71598 65 ft 14 kts 222°
2026-04-14 12:38 3.76010 8.71586 66 ft 4 kts 142°
2026-04-14 12:38 3.75986 8.71590 68 ft 4 kts 188°
2026-04-14 12:38 3.75964 8.71577 68 ft 4 kts 219°
2026-04-14 12:39 3.75944 8.71560 63 ft 4 kts 222°
2026-04-14 12:39 3.75925 8.71542 64 ft 4 kts 222°
2026-04-14 12:39 3.75906 8.71525 63 ft 4 kts 222°
2026-04-14 12:39 3.75881 8.71523 63 ft 4 kts 157°
2026-04-14 12:40 3.75863 8.71542 69 ft 4 kts 131°
2026-04-14 12:40 3.75847 8.71560 66 ft 3 kts 133°
2026-04-14 12:40 3.75835 8.71573 63 ft 0 kts 133°